When you browse on this site, cookies collect data to enhance your experience and personalize the content and advertising you see.
Visit our Privacy Policy to learn more. By continuing to use the site, you agree to this use of cookies and data.
  • In Sweden
  • List of Countries
  • For 7 days
  • Water Temperature
  • Satellite Maps
  • Weather Map
  • Weather Widgets
  • user-avatar
    Login

    Hourly Weather Swansea

    Today, 23 March, Saturday

    Time Temperature Precipitation Wind Pressure Humidity
    00:00 +8°C° 0 mm 4 mps 770 mmHg 93%
    01:00 +7°C° 0 mm 4 mps 770 mmHg 90%
    02:00 +7°C° 0 mm 4 mps 770 mmHg 88%
    03:00 +6°C° 0 mm 4 mps 771 mmHg 86%
    04:00 +6°C° 0 mm 4 mps 771 mmHg 85%
    05:00 +6°C° 0 mm 4 mps 771 mmHg 84%
    06:00 +5°C° 0 mm 4 mps 771 mmHg 84%
    07:00 +6°C° 0 mm 4 mps 772 mmHg 81%
    08:00 +7°C° 0 mm 4 mps 772 mmHg 78%
    09:00 +7°C° 0 mm 4 mps 773 mmHg 76%
    10:00 +8°C° 0 mm 4 mps 773 mmHg 73%
    11:00 +10°C° 0 mm 4 mps 773 mmHg 70%
    12:00 +10°C° 0 mm 3 mps 773 mmHg 68%
    13:00 +11°C° 0 mm 3 mps 773 mmHg 66%
    14:00 +11°C° 0 mm 3 mps 772 mmHg 65%
    15:00 +11°C° 0 mm 3 mps 772 mmHg 64%
    16:00 +11°C° 0 mm 3 mps 772 mmHg 69%
    17:00 +10°C° 0 mm 3 mps 772 mmHg 73%
    18:00 +9°C° 0 mm 3 mps 772 mmHg 77%
    19:00 +8°C° 0 mm 3 mps 773 mmHg 76%
    20:00 +8°C° 0 mm 3 mps 773 mmHg 76%
    21:00 +7°C° 0 mm 3 mps 773 mmHg 75%
    22:00 +7°C° 0 mm 3 mps 773 mmHg 74%
    23:00 +7°C° 0 mm 3 mps 773 mmHg 73%

    Tomorrow, 24 March, Sunday

    Time Temperature Precipitation Wind Pressure Humidity
    00:00 +7°C° 0 mm 3 mps 773 mmHg 72%
    01:00 +7°C° 0 mm 3 mps 773 mmHg 74%
    02:00 +7°C° 0 mm 2 mps 773 mmHg 76%
    03:00 +6°C° 0 mm 2 mps 773 mmHg 78%
    04:00 +6°C° 0 mm 2 mps 773 mmHg 81%
    05:00 +5°C° 0 mm 2 mps 773 mmHg 84%
    06:00 +4°C° 0 mm 2 mps 773 mmHg 87%
    07:00 +6°C° 0 mm 2 mps 773 mmHg 81%
    08:00 +7°C° 0 mm 3 mps 774 mmHg 75%
    09:00 +8°C° 0 mm 3 mps 774 mmHg 69%
    10:00 +9°C° 0 mm 3 mps 774 mmHg 66%
    11:00 +10°C° 0 mm 3 mps 774 mmHg 63%
    12:00 +11°C° 0 mm 4 mps 774 mmHg 60%
    13:00 +11°C° 0 mm 4 mps 774 mmHg 60%
    14:00 +10°C° 0 mm 4 mps 774 mmHg 60%
    15:00 +9°C° 0 mm 5 mps 774 mmHg 60%
    16:00 +8°C° 0 mm 5 mps 774 mmHg 65%
    17:00 +7°C° 0 mm 4 mps 774 mmHg 70%
    18:00 +6°C° 0 mm 4 mps 774 mmHg 74%
    19:00 +5°C° 0 mm 3 mps 774 mmHg 78%
    20:00 +4°C° 0 mm 3 mps 774 mmHg 82%
    21:00 +3°C° 0 mm 3 mps 774 mmHg 86%
    22:00 +3°C° 0 mm 3 mps 774 mmHg 86%
    23:00 +3°C° 0 mm 3 mps 774 mmHg 87%

    Day after tomorrow, 25 March, Monday

    Time Temperature Precipitation Wind Pressure Humidity
    00:00 +4°C° 0 mm 3 mps 774 mmHg 87%
    01:00 +4°C° 0 mm 3 mps 774 mmHg 89%
    02:00 +4°C° 0 mm 3 mps 774 mmHg 91%
    03:00 +4°C° 0 mm 4 mps 774 mmHg 93%
    04:00 +3°C° 0 mm 4 mps 774 mmHg 93%
    05:00 +3°C° 0 mm 4 mps 774 mmHg 93%
    06:00 +3°C° 0 mm 3 mps 775 mmHg 93%
    07:00 +4°C° 0 mm 3 mps 775 mmHg 87%
    08:00 +7°C° 0 mm 3 mps 775 mmHg 82%
    09:00 +8°C° 0 mm 3 mps 775 mmHg 76%
    10:00 +9°C° 0 mm 3 mps 775 mmHg 72%
    11:00 +10°C° 0 mm 2 mps 775 mmHg 68%
    12:00 +12°C° 0 mm 1 mps 775 mmHg 64%
    13:00 +12°C° 0 mm 1 mps 775 mmHg 67%
    14:00 +12°C° 0 mm 1 mps 775 mmHg 69%
    15:00 +12°C° 0 mm 1 mps 775 mmHg 71%
    16:00 +11°C° 0 mm 1 mps 775 mmHg 75%
    17:00 +11°C° 0 mm 1 mps 775 mmHg 78%
    18:00 +10°C° 0 mm 1 mps 775 mmHg 82%
    19:00 +8°C° 0 mm 2 mps 775 mmHg 84%
    20:00 +7°C° 0 mm 2 mps 776 mmHg 87%
    21:00 +6°C° 0 mm 2 mps 776 mmHg 89%
    22:00 +6°C° 0 mm 2 mps 776 mmHg 89%
    23:00 +5°C° 0 mm 2 mps 776 mmHg 89%

    26 March, Tuesday

    Time Temperature Precipitation Wind Pressure Humidity
    00:00 +5°C° 0 mm 2 mps 776 mmHg 89%
    01:00 +5°C° 0 mm 2 mps 776 mmHg 89%
    02:00 +5°C° 0 mm 2 mps 776 mmHg 90%
    03:00 +4°C° 0 mm 2 mps 776 mmHg 90%
    04:00 +4°C° 0 mm 2 mps 776 mmHg 91%
    05:00 +4°C° 0 mm 2 mps 776 mmHg 91%
    06:00 +5°C° 0 mm 1 mps 776 mmHg 92%
    07:00 +7°C° 0 mm 1 mps 776 mmHg 87%
    08:00 +8°C° 0 mm 1 mps 776 mmHg 83%
    09:00 +10°C° 0 mm 1 mps 777 mmHg 78%
    10:00 +10°C° 0 mm 2 mps 777 mmHg 75%
    11:00 +12°C° 0 mm 2 mps 776 mmHg 72%
    12:00 +13°C° 0 mm 2 mps 776 mmHg 69%
    13:00 +13°C° 0 mm 2 mps 776 mmHg 69%
    14:00 +12°C° 0 mm 3 mps 776 mmHg 69%
    15:00 +12°C° 0 mm 3 mps 775 mmHg 69%
    16:00 +12°C° 0 mm 2 mps 775 mmHg 74%
    17:00 +10°C° 0 mm 2 mps 775 mmHg 78%
    18:00 +9°C° 0 mm 2 mps 775 mmHg 83%
    19:00 +8°C° 0 mm 2 mps 775 mmHg 86%
    20:00 +7°C° 0 mm 2 mps 775 mmHg 90%
    21:00 +6°C° 0 mm 2 mps 776 mmHg 93%
    22:00 +6°C° 0 mm 2 mps 776 mmHg 94%
    23:00 +6°C° 0 mm 1 mps 776 mmHg 94%

    27 March, Wednesday

    Time Temperature Precipitation Wind Pressure Humidity
    00:00 +6°C° 0 mm 1 mps 776 mmHg 94%
    01:00 +6°C° 0 mm 1 mps 776 mmHg 93%
    02:00 +5°C° 0 mm 1 mps 775 mmHg 93%
    03:00 +5°C° 0 mm 1 mps 775 mmHg 92%
    04:00 +5°C° 0 mm 1 mps 775 mmHg 92%
    05:00 +5°C° 0 mm 1 mps 775 mmHg 92%
    06:00 +5°C° 0 mm 1 mps 775 mmHg 93%
    07:00 +7°C° 0 mm 1 mps 776 mmHg 88%
    08:00 +9°C° 0 mm 1 mps 776 mmHg 84%
    09:00 +9°C° 0 mm 2 mps 776 mmHg 80%
    10:00 +12°C° 0 mm 2 mps 776 mmHg 75%
    11:00 +13°C° 0 mm 2 mps 776 mmHg 71%
    12:00 +15°C° 0 mm 2 mps 776 mmHg 67%
    13:00 +15°C° 0 mm 2 mps 776 mmHg 66%
    14:00 +16°C° 0 mm 2 mps 775 mmHg 65%
    15:00 +16°C° 0 mm 2 mps 775 mmHg 64%
    16:00 +15°C° 0 mm 2 mps 775 mmHg 70%
    17:00 +14°C° 0 mm 2 mps 775 mmHg 75%
    18:00 +12°C° 0 mm 2 mps 775 mmHg 81%
    19:00 +10°C° 0 mm 2 mps 775 mmHg 82%
    20:00 +9°C° 0 mm 2 mps 775 mmHg 83%
    21:00 +8°C° 0 mm 2 mps 775 mmHg 84%
    22:00 +7°C° 0 mm 2 mps 775 mmHg 86%
    23:00 +7°C° 0 mm 2 mps 775 mmHg 88%

    28 March, Thursday

    Time Temperature Precipitation Wind Pressure Humidity
    00:00 +7°C° 0 mm 2 mps 775 mmHg 90%
    01:00 +7°C° 0 mm 2 mps 775 mmHg 90%
    02:00 +7°C° 0 mm 2 mps 775 mmHg 90%
    03:00 +7°C° 0 mm 2 mps 775 mmHg 90%
    04:00 +7°C° 0 mm 2 mps 775 mmHg 90%
    05:00 +6°C° 0 mm 2 mps 775 mmHg 90%
    06:00 +6°C° 0 mm 2 mps 775 mmHg 89%
    07:00 +8°C° 0 mm 2 mps 775 mmHg 83%
    08:00 +10°C° 0 mm 2 mps 775 mmHg 77%
    09:00 +12°C° 0 mm 1 mps 775 mmHg 72%
    10:00 +14°C° 0 mm 2 mps 775 mmHg 68%
    11:00 +15°C° 0 mm 2 mps 775 mmHg 65%
    12:00 +16°C° 0 mm 2 mps 775 mmHg 62%
    13:00 +16°C° 0 mm 2 mps 775 mmHg 62%
    14:00 +16°C° 0 mm 2 mps 774 mmHg 62%
    15:00 +18°C° 0 mm 1 mps 774 mmHg 62%
    16:00 +16°C° 0 mm 1 mps 774 mmHg 68%
    17:00 +15°C° 0 mm 1 mps 774 mmHg 74%
    18:00 +14°C° 0 mm 1 mps 774 mmHg 79%
    19:00 +13°C° 0 mm 1 mps 774 mmHg 82%
    20:00 +12°C° 0 mm 1 mps 774 mmHg 86%
    21:00 +10°C° 0 mm 1 mps 774 mmHg 89%
    22:00 +10°C° 0 mm 1 mps 774 mmHg 90%
    23:00 +10°C° 0 mm 1 mps 774 mmHg 90%
    Show more